TimeMST,TemperatureF,Dew PointF,Humidity,Sea Level PressureIn,VisibilityMPH,Wind Direction,Wind SpeedMPH,Gust SpeedMPH,PrecipitationIn,Events,Conditions,WindDirDegrees,DateUTC
12:15 AM,12.2,1.4,62,-9999,10.0,West,9.2,-,N/A,,Scattered Clouds,280,2014-02-20 07:15:00
12:35 AM,12.2,-4.0,48,-9999,10.0,West,9.2,-,N/A,,Clear,280,2014-02-20 07:35:00
12:55 AM,12.2,-5.8,45,-9999,10.0,West,11.5,-,N/A,,Clear,280,2014-02-20 07:55:00
1:15 AM,12.2,-7.6,41,-9999,10.0,West,8.1,-,N/A,,Clear,270,2014-02-20 08:15:00
1:35 AM,10.4,-0.4,62,-9999,10.0,West,11.5,17.3,N/A,,Clear,270,2014-02-20 08:35:00
1:55 AM,10.4,-0.4,62,-9999,10.0,West,8.1,-,N/A,,Clear,270,2014-02-20 08:55:00
2:15 AM,10.4,-0.4,62,-9999,10.0,West,10.4,-,N/A,,Clear,270,2014-02-20 09:15:00
2:35 AM,8.6,-2.2,62,-9999,10.0,West,9.2,-,N/A,,Clear,270,2014-02-20 09:35:00
2:55 AM,8.6,-2.2,62,-9999,10.0,West,10.4,-,N/A,,Clear,280,2014-02-20 09:55:00
3:15 AM,8.6,-2.2,62,-9999,10.0,West,10.4,-,N/A,,Clear,280,2014-02-20 10:15:00
3:35 AM,8.6,-2.2,62,-9999,10.0,West,9.2,-,N/A,,Clear,280,2014-02-20 10:35:00
3:55 AM,10.4,-4.0,52,-9999,10.0,WNW,10.4,-,N/A,,Clear,290,2014-02-20 10:55:00
4:15 AM,8.6,-5.8,52,-9999,10.0,West,10.4,-,N/A,,Clear,280,2014-02-20 11:15:00
4:35 AM,8.6,-5.8,52,-9999,10.0,West,10.4,16.1,N/A,,Clear,280,2014-02-20 11:35:00
4:55 AM,8.6,-5.8,52,-9999,10.0,West,9.2,-,N/A,,Clear,270,2014-02-20 11:55:00
5:15 AM,8.6,-4.0,57,-9999,10.0,West,9.2,-,N/A,,Clear,270,2014-02-20 12:15:00
5:35 AM,8.6,-4.0,57,-9999,10.0,West,9.2,-,N/A,,Clear,270,2014-02-20 12:35:00
5:55 AM,8.6,-4.0,57,-9999,10.0,West,8.1,-,N/A,,Clear,270,2014-02-20 12:55:00
6:15 AM,8.6,-4.0,57,-9999,10.0,West,10.4,-,N/A,,Clear,280,2014-02-20 13:15:00
6:35 AM,8.6,-5.8,52,-9999,10.0,WNW,13.8,20.7,N/A,,Clear,290,2014-02-20 13:35:00
6:55 AM,8.6,-5.8,52,-9999,10.0,WNW,10.4,17.3,N/A,,Clear,290,2014-02-20 13:55:00
7:15 AM,8.6,-4.0,57,-9999,10.0,WNW,11.5,19.6,N/A,,Clear,290,2014-02-20 14:15:00
7:35 AM,8.6,-4.0,57,-9999,10.0,West,8.1,-,N/A,,Clear,280,2014-02-20 14:35:00
7:55 AM,10.4,-4.0,52,-9999,10.0,West,8.1,-,N/A,,Clear,270,2014-02-20 14:55:00
8:15 AM,10.4,-4.0,52,-9999,10.0,West,10.4,-,N/A,,Clear,270,2014-02-20 15:15:00
8:35 AM,12.2,-4.0,48,-9999,10.0,West,10.4,-,N/A,,Clear,270,2014-02-20 15:35:00
8:55 AM,12.2,-2.2,53,-9999,10.0,WSW,15.0,20.7,N/A,,Clear,250,2014-02-20 15:55:00
9:15 AM,12.2,-0.4,57,-9999,10.0,WSW,15.0,-,N/A,,Clear,250,2014-02-20 16:15:00
9:35 AM,12.2,-2.2,53,-9999,10.0,WSW,15.0,-,N/A,,Clear,250,2014-02-20 16:35:00
9:55 AM,14.0,-0.4,53,-9999,10.0,WSW,16.1,19.6,N/A,,Clear,250,2014-02-20 16:55:00
10:15 AM,14.0,-0.4,53,-9999,10.0,WSW,16.1,23.0,N/A,,Clear,250,2014-02-20 17:15:00
10:35 AM,14.0,1.4,57,-9999,10.0,WSW,19.6,23.0,N/A,,Clear,250,2014-02-20 17:35:00
10:55 AM,14.0,3.2,62,-9999,10.0,WSW,18.4,24.2,N/A,,Clear,250,2014-02-20 17:55:00
11:15 AM,14.0,3.2,62,-9999,10.0,WSW,16.1,25.3,N/A,,Clear,250,2014-02-20 18:15:00
11:35 AM,14.0,3.2,62,-9999,10.0,WSW,16.1,-,N/A,,Clear,250,2014-02-20 18:35:00
11:55 AM,15.8,3.2,58,-9999,10.0,WSW,12.7,21.9,N/A,,Clear,240,2014-02-20 18:55:00
12:15 PM,15.8,3.2,58,-9999,10.0,WSW,20.7,27.6,N/A,,Clear,250,2014-02-20 19:15:00
12:35 PM,17.6,3.2,53,-9999,10.0,West,17.3,27.6,N/A,,Clear,260,2014-02-20 19:35:00
12:55 PM,19.4,3.2,49,-9999,10.0,West,17.3,27.6,N/A,,Clear,260,2014-02-20 19:55:00
1:15 PM,19.4,3.2,49,-9999,10.0,WSW,21.9,26.5,N/A,,Clear,250,2014-02-20 20:15:00
1:35 PM,17.6,5.0,58,-9999,10.0,WSW,24.2,29.9,N/A,,Clear,250,2014-02-20 20:35:00
1:55 PM,19.4,3.2,49,-9999,10.0,WSW,25.3,32.2,N/A,,Scattered Clouds,250,2014-02-20 20:55:00
2:15 PM,17.6,3.2,53,-9999,7.0,West,23.0,35.7,N/A,,Clear,270,2014-02-20 21:15:00
2:35 PM,17.6,3.2,53,-9999,10.0,West,21.9,28.8,N/A,,Clear,270,2014-02-20 21:35:00
2:55 PM,15.8,6.8,68,-9999,3.0,West,33.4,42.6,N/A,,Haze,260,2014-02-20 21:55:00
3:15 PM,15.8,6.8,68,-9999,10.0,WSW,17.3,34.5,N/A,,Scattered Clouds,240,2014-02-20 22:15:00
3:35 PM,15.8,6.8,68,-9999,10.0,WSW,19.6,29.9,N/A,,Mostly Cloudy,250,2014-02-20 22:35:00
3:55 PM,15.8,6.8,68,-9999,10.0,SW,15.0,24.2,N/A,,Mostly Cloudy,230,2014-02-20 22:55:00
4:15 PM,15.8,8.6,73,-9999,10.0,SW,9.2,27.6,N/A,,Scattered Clouds,230,2014-02-20 23:15:00
4:35 PM,15.8,8.6,73,-9999,10.0,WSW,23.0,33.4,N/A,,Scattered Clouds,240,2014-02-20 23:35:00
4:55 PM,14.0,8.6,79,-9999,10.0,WSW,28.8,43.7,N/A,,Clear,250,2014-02-20 23:55:00
5:15 PM,15.8,8.6,73,-9999,10.0,WSW,26.5,35.7,N/A,,Clear,250,2014-02-21 00:15:00
5:35 PM,14.0,8.6,79,-9999,5.0,WSW,31.1,39.1,N/A,,Haze,250,2014-02-21 00:35:00
5:55 PM,14.0,8.6,79,-9999,5.0,West,31.1,43.7,N/A,,Haze,260,2014-02-21 00:55:00
6:15 PM,14.0,8.6,79,-9999,10.0,West,25.3,33.4,N/A,,Clear,260,2014-02-21 01:15:00
6:35 PM,14.0,8.6,79,-9999,10.0,West,12.7,25.3,N/A,,Clear,280,2014-02-21 01:35:00
6:55 PM,14.0,8.6,79,-9999,10.0,West,13.8,23.0,N/A,,Mostly Cloudy,280,2014-02-21 01:55:00
7:15 PM,14.0,10.4,86,-9999,10.0,West,15.0,21.9,N/A,Snow,Light Snow,260,2014-02-21 02:15:00
7:35 PM,14.0,10.4,86,-9999,5.0,WSW,26.5,36.8,N/A,,Haze,250,2014-02-21 02:35:00
7:55 PM,14.0,8.6,79,-9999,10.0,WSW,21.9,28.8,N/A,,Overcast,250,2014-02-21 02:55:00
8:15 PM,14.0,10.4,86,-9999,5.0,West,21.9,32.2,N/A,,Overcast,260,2014-02-21 03:15:00
8:35 PM,14.0,10.4,86,-9999,3.0,WSW,16.1,29.9,N/A,Snow,Light Snow,250,2014-02-21 03:35:00
8:55 PM,14.0,12.2,93,-9999,2.0,WSW,19.6,28.8,N/A,Snow,Light Snow,250,2014-02-21 03:55:00
9:15 PM,14.0,12.2,93,-9999,1.5,West,9.2,25.3,N/A,Snow,Light Snow,260,2014-02-21 04:15:00
9:35 PM,14.0,12.2,93,-9999,1.5,West,12.7,21.9,N/A,Snow,Light Snow,270,2014-02-21 04:35:00
9:55 PM,14.0,12.2,93,-9999,2.0,WNW,15.0,27.6,N/A,Snow,Light Snow,290,2014-02-21 04:55:00
10:15 PM,14.0,12.2,93,-9999,3.0,West,16.1,24.2,N/A,Snow,Light Snow,270,2014-02-21 05:15:00
10:35 PM,14.0,12.2,93,-9999,1.8,West,15.0,28.8,N/A,Snow,Light Snow,270,2014-02-21 05:35:00
10:55 PM,14.0,12.2,93,-9999,0.8,West,16.1,33.4,N/A,Snow,Light Snow,260,2014-02-21 05:55:00
11:15 PM,14.0,12.2,93,-9999,1.2,West,24.2,36.8,N/A,Snow,Light Snow,260,2014-02-21 06:15:00
11:35 PM,14.0,12.2,93,-9999,1.0,West,26.5,35.7,N/A,Snow,Light Snow,260,2014-02-21 06:35:00
11:55 PM,14.0,12.2,93,-9999,1.0,WSW,28.8,36.8,N/A,Snow,Light Snow,250,2014-02-21 06:55:00